| time (UTC) | temp C | wind direction | speed KPH | gust KPH | rain 1hr cm | rain 24hr cm | rain mn cm | humidity % | barometer mb |
| 20260510162503 | 13 | 6 | 16.1 | 30.6 | 0.00 | 0.00 | 0.00 | 53 | 1014.6 |
| 20260510162003 | 13 | 15 | 14.5 | 29.0 | 0.00 | 0.00 | 0.00 | 53 | 1014.6 |
| 20260510161715 | 13 | 15 | 12.9 | 27.4 | 0.00 | 0.00 | 0.00 | 51 | 1014.6 |
| 20260510161003 | 13 | 15 | 12.9 | 24.1 | 0.00 | 0.00 | 0.00 | 53 | 1014.7 |
| 20260510160503 | 13 | 25 | 12.9 | 27.4 | 0.00 | 0.00 | 0.00 | 53 | 1014.7 |
| 20260510160003 | 13 | 29 | 12.9 | 29.0 | 0.00 | 0.00 | 0.00 | 51 | 1014.7 |
| 20260510155503 | 13 | 33 | 11.3 | 29.0 | 0.00 | 0.00 | 0.00 | 52 | 1014.8 |
| 20260510155004 | 13 | 22 | 11.3 | 20.9 | 0.00 | 0.00 | 0.00 | 53 | 1014.8 |
| 20260510154503 | 13 | 19 | 11.3 | 27.4 | 0.00 | 0.00 | 0.00 | 53 | 1014.8 |
| 20260510154004 | 13 | 17 | 12.9 | 27.4 | 0.00 | 0.00 | 0.00 | 52 | 1014.9 |
| 20260510153714 | 13 | 15 | 12.9 | 30.6 | 0.00 | 0.00 | 0.00 | 52 | 1014.9 |
| 20260510153003 | 13 | 23 | 11.3 | 30.6 | 0.00 | 0.00 | 0.00 | 52 | 1014.9 |
| 20260510152503 | 13 | 28 | 11.3 | 24.1 | 0.00 | 0.00 | 0.00 | 54 | 1015.2 |
| 20260510152004 | 13 | 20 | 12.9 | 32.2 | 0.00 | 0.00 | 0.00 | 54 | 1015.2 |
| 20260510151503 | 13 | 23 | 14.5 | 32.2 | 0.00 | 0.00 | 0.00 | 53 | 1015.2 |
| 20260510151003 | 13 | 33 | 11.3 | 24.1 | 0.00 | 0.00 | 0.00 | 53 | 1015.2 |
| 20260510150503 | 13 | 36 | 9.7 | 22.5 | 0.00 | 0.00 | 0.00 | 54 | 1015.2 |
| 20260510150003 | 13 | 32 | 11.3 | 30.6 | 0.00 | 0.00 | 0.00 | 55 | 1015.2 |
| 20260510145503 | 13 | 20 | 12.9 | 30.6 | 0.00 | 0.00 | 0.00 | 54 | 1015.4 |
| 20260510145003 | 13 | 23 | 11.3 | 22.5 | 0.00 | 0.00 | 0.00 | 55 | 1015.4 |
| 20260510144503 | 13 | 31 | 11.3 | 22.5 | 0.00 | 0.00 | 0.00 | 54 | 1015.4 |
| 20260510144003 | 13 | 36 | 11.3 | 27.4 | 0.00 | 0.00 | 0.00 | 57 | 1015.6 |
| 20260510143714 | 13 | 34 | 12.9 | 27.4 | 0.00 | 0.00 | 0.00 | 56 | 1015.6 |
| 20260510143217 | 13 | 23 | 12.9 | 27.4 | 0.00 | 0.00 | 0.00 | 55 | 1015.6 |
| 20260510142503 | 13 | 24 | 12.9 | 30.6 | 0.00 | 0.00 | 0.00 | 55 | 1015.7 |
| 20260510142003 | 13 | 37 | 11.3 | 24.1 | 0.00 | 0.00 | 0.00 | 58 | 1015.7 |
| 20260510141503 | 12 | 50 | 11.3 | 22.5 | 0.00 | 0.00 | 0.00 | 58 | 1015.7 |
| 20260510141003 | 12 | 36 | 12.9 | 29.0 | 0.00 | 0.00 | 0.00 | 59 | 1015.8 |
| 20260510140717 | 12 | 23 | 12.9 | 29.0 | 0.00 | 0.00 | 0.00 | 59 | 1015.8 |
| 20260510140003 | 12 | 29 | 14.5 | 29.0 | 0.00 | 0.00 | 0.00 | 58 | 1015.8 |
| 20260510135504 | 12 | 33 | 14.5 | 29.0 | 0.00 | 0.00 | 0.00 | 59 | 1015.8 |
| 20260510135005 | 12 | 29 | 14.5 | 24.1 | 0.00 | 0.00 | 0.00 | 59 | 1015.8 |
| 20260510134714 | 12 | 25 | 12.9 | 24.1 | 0.00 | 0.00 | 0.00 | 59 | 1015.8 |
| 20260510134004 | 12 | 22 | 11.3 | 22.5 | 0.00 | 0.00 | 0.00 | 59 | 1016.2 |
| 20260510133503 | 12 | 23 | 12.9 | 24.1 | 0.00 | 0.00 | 0.00 | 59 | 1016.2 |
| 20260510133003 | 12 | 28 | 12.9 | 24.1 | 0.00 | 0.00 | 0.00 | 59 | 1016.2 |
| 20260510132504 | 12 | 42 | 12.9 | 27.4 | 0.00 | 0.00 | 0.00 | 59 | 1016.3 |
| 20260510132003 | 12 | 45 | 12.9 | 27.4 | 0.00 | 0.00 | 0.00 | 59 | 1016.3 |
| 20260510131504 | 12 | 28 | 11.3 | 27.4 | 0.00 | 0.00 | 0.00 | 61 | 1016.3 |
| 20260510131003 | 12 | 25 | 12.9 | 27.4 | 0.00 | 0.00 | 0.00 | 61 | 1016.3 |
| 20260510130503 | 12 | 23 | 12.9 | 29.0 | 0.00 | 0.00 | 0.00 | 61 | 1016.3 |
| 20260510130216 | 12 | 25 | 12.9 | 29.0 | 0.00 | 0.00 | 0.00 | 62 | 1016.3 |
| 20260510125504 | 12 | 27 | 11.3 | 24.1 | 0.00 | 0.00 | 0.00 | 63 | 1016.4 |
| 20260510125003 | 11 | 28 | 12.9 | 27.4 | 0.00 | 0.00 | 0.00 | 63 | 1016.4 |
| 20260510124504 | 11 | 29 | 14.5 | 29.0 | 0.00 | 0.00 | 0.00 | 63 | 1016.4 |
| 20260510124003 | 12 | 29 | 12.9 | 29.0 | 0.00 | 0.00 | 0.00 | 62 | 1016.6 |
| 20260510123504 | 12 | 38 | 12.9 | 30.6 | 0.00 | 0.00 | 0.00 | 62 | 1016.6 |
| 20260510123003 | 12 | 42 | 12.9 | 30.6 | 0.00 | 0.00 | 0.00 | 61 | 1016.6 |
| 20260510122504 | 12 | 27 | 12.9 | 24.1 | 0.00 | 0.00 | 0.00 | 62 | 1016.7 |
| 20260510122018 | 12 | 16 | 14.5 | 29.0 | 0.00 | 0.00 | 0.00 | 62 | 1016.7 |
| 20260510121503 | 12 | 16 | 12.9 | 29.0 | 0.00 | 0.00 | 0.00 | 64 | 1016.7 |
| 20260510121003 | 12 | 21 | 12.9 | 24.1 | 0.00 | 0.00 | 0.00 | 65 | 1016.9 |
| 20260510120504 | 12 | 29 | 11.3 | 24.1 | 0.00 | 0.00 | 0.00 | 65 | 1016.9 |
| 20260510120004 | 12 | 33 | 11.3 | 24.1 | 0.00 | 0.00 | 0.00 | 66 | 1016.9 |
| 20260510115714 | 11 | 28 | 11.3 | 24.1 | 0.00 | 0.00 | 0.00 | 66 | 1017.0 |
| 20260510115003 | 12 | 36 | 12.9 | 29.0 | 0.00 | 0.00 | 0.00 | 67 | 1017.0 |
| 20260510114504 | 11 | 35 | 12.9 | 27.4 | 0.00 | 0.00 | 0.00 | 67 | 1017.0 |
| 20260510114003 | 11 | 30 | 12.9 | 24.1 | 0.00 | 0.00 | 0.00 | 67 | 1017.1 |
| 20260510113716 | 11 | 28 | 12.9 | 24.1 | 0.00 | 0.00 | 0.00 | 66 | 1017.1 |
| 20260510113005 | 12 | 25 | 11.3 | 24.1 | 0.00 | 0.00 | 0.00 | 66 | 1017.1 |
| 20260510112503 | 12 | 33 | 11.3 | 24.1 | 0.00 | 0.00 | 0.00 | 66 | 1017.2 |
| 20260510112215 | 12 | 33 | 9.7 | 24.1 | 0.00 | 0.00 | 0.00 | 67 | 1017.2 |
| 20260510111503 | 11 | 26 | 11.3 | 27.4 | 0.00 | 0.00 | 0.00 | 67 | 1017.2 |
| 20260510111003 | 11 | 23 | 14.5 | 29.0 | 0.00 | 0.00 | 0.00 | 67 | 1017.3 |
| 20260510110504 | 11 | 29 | 12.9 | 29.0 | 0.00 | 0.00 | 0.00 | 67 | 1017.3 |
| 20260510110003 | 11 | 38 | 12.9 | 22.5 | 0.00 | 0.00 | 0.00 | 68 | 1017.3 |
| 20260510105504 | 11 | 13 | 14.5 | 24.1 | 0.00 | 0.00 | 0.00 | 68 | 1017.3 |
| 20260510105218 | 11 | 10 | 16.1 | 24.1 | 0.00 | 0.00 | 0.00 | 68 | 1017.3 |
| 20260510104716 | 11 | 16 | 14.5 | 32.2 | 0.00 | 0.00 | 0.00 | 69 | 1017.3 |
| 20260510104214 | 11 | 18 | 14.5 | 32.2 | 0.00 | 0.00 | 0.00 | 69 | 1017.3 |
| 20260510103503 | 11 | 23 | 12.9 | 27.4 | 0.00 | 0.00 | 0.00 | 69 | 1017.3 |
| 20260510103215 | 11 | 27 | 12.9 | 24.1 | 0.00 | 0.00 | 0.00 | 70 | 1017.3 |
| 20260510102503 | 11 | 36 | 11.3 | 27.4 | 0.00 | 0.00 | 0.00 | 71 | 1017.5 |
| 20260510102004 | 11 | 40 | 12.9 | 30.6 | 0.00 | 0.00 | 0.00 | 73 | 1017.5 |
| 20260510101503 | 11 | 34 | 12.9 | 30.6 | 0.00 | 0.00 | 0.00 | 72 | 1017.5 |
| 20260510101003 | 11 | 32 | 12.9 | 27.4 | 0.00 | 0.00 | 0.00 | 73 | 1017.6 |
| 20260510100505 | 11 | 36 | 12.9 | 27.4 | 0.00 | 0.00 | 0.00 | 73 | 1017.6 |
| 20260510100004 | 11 | 48 | 12.9 | 27.4 | 0.00 | 0.00 | 0.00 | 74 | 1017.6 |
| 20260510095504 | 11 | 49 | 12.9 | 27.4 | 0.00 | 0.00 | 0.00 | 74 | 1017.7 |
| 20260510095003 | 11 | 37 | 12.9 | 27.4 | 0.00 | 0.00 | 0.00 | 74 | 1017.7 |
| 20260510094503 | 11 | 31 | 12.9 | 24.1 | 0.00 | 0.00 | 0.00 | 74 | 1017.7 |
| 20260510094003 | 11 | 28 | 11.3 | 22.5 | 0.00 | 0.00 | 0.00 | 74 | 1017.5 |
| 20260510093503 | 11 | 27 | 12.9 | 24.1 | 0.00 | 0.00 | 0.00 | 75 | 1017.5 |
| 20260510093003 | 11 | 30 | 11.3 | 27.4 | 0.00 | 0.00 | 0.00 | 76 | 1017.5 |
| 20260510092713 | 11 | 33 | 14.5 | 29.0 | 0.00 | 0.00 | 0.00 | 76 | 1017.6 |
| 20260510092004 | 11 | 28 | 14.5 | 29.0 | 0.00 | 0.00 | 0.00 | 76 | 1017.6 |
| 20260510091503 | 11 | 26 | 12.9 | 29.0 | 0.00 | 0.00 | 0.00 | 76 | 1017.6 |
| 20260510091004 | 11 | 32 | 11.3 | 24.1 | 0.00 | 0.00 | 0.00 | 77 | 1017.7 |
| 20260510090505 | 11 | 37 | 11.3 | 27.4 | 0.00 | 0.00 | 0.00 | 77 | 1017.7 |
| 20260510090004 | 11 | 35 | 12.9 | 27.4 | 0.00 | 0.00 | 0.00 | 78 | 1017.7 |
| 20260510085503 | 11 | 37 | 11.3 | 24.1 | 0.00 | 0.00 | 0.00 | 78 | 1017.8 |
| 20260510085004 | 10 | 39 | 11.3 | 24.1 | 0.00 | 0.00 | 0.00 | 79 | 1017.8 |
| 20260510084504 | 10 | 33 | 12.9 | 27.4 | 0.00 | 0.00 | 0.00 | 79 | 1017.8 |
| 20260510084004 | 10 | 32 | 12.9 | 29.0 | 0.00 | 0.00 | 0.00 | 80 | 1017.8 |
| 20260510083504 | 10 | 29 | 12.9 | 29.0 | 0.00 | 0.00 | 0.00 | 80 | 1017.8 |
| 20260510083003 | 10 | 24 | 14.5 | 27.4 | 0.00 | 0.00 | 0.00 | 82 | 1017.8 |
| 20260510082714 | 10 | 25 | 14.5 | 27.4 | 0.00 | 0.00 | 0.00 | 83 | 1017.9 |
| 20260510082005 | 10 | 26 | 12.9 | 29.0 | 0.00 | 0.00 | 0.00 | 86 | 1017.9 |
| 20260510081715 | 10 | 28 | 14.5 | 35.4 | 0.00 | 0.00 | 0.00 | 86 | 1017.9 |
| 20260510081003 | 10 | 25 | 14.5 | 35.4 | 0.00 | 0.00 | 0.00 | 86 | 1018.0 |
| 20260510080503 | 10 | 23 | 12.9 | 27.4 | 0.00 | 0.00 | 0.00 | 87 | 1018.0 |
| 20260510080003 | 10 | 22 | 11.3 | 27.4 | 0.00 | 0.00 | 0.00 | 88 | 1018.0 |
| 20260510075717 | 10 | 22 | 11.3 | 30.6 | 0.00 | 0.00 | 0.00 | 88 | 1018.0 |
| 20260510075003 | 10 | 17 | 14.5 | 30.6 | 0.00 | 0.00 | 0.00 | 89 | 1018.0 |
| 20260510074503 | 9 | 17 | 11.3 | 30.6 | 0.00 | 0.00 | 0.00 | 89 | 1018.0 |
| 20260510074003 | 9 | 19 | 9.7 | 20.9 | 0.00 | 0.00 | 0.00 | 90 | 1017.9 |
| 20260510073503 | 9 | 19 | 9.7 | 22.5 | 0.00 | 0.00 | 0.00 | 91 | 1017.9 |
| 20260510073217 | 9 | 23 | 9.7 | 22.5 | 0.00 | 0.00 | 0.00 | 91 | 1017.9 |
| 20260510072504 | 9 | 24 | 11.3 | 27.4 | 0.00 | 0.00 | 0.00 | 91 | 1017.8 |
| 20260510072004 | 9 | 22 | 9.7 | 20.9 | 0.00 | 0.00 | 0.00 | 92 | 1017.8 |
| 20260510071504 | 9 | 18 | 9.7 | 20.9 | 0.00 | 0.00 | 0.00 | 92 | 1017.8 |
| 20260510071214 | 9 | 16 | 9.7 | 20.9 | 0.00 | 0.00 | 0.00 | 92 | 1017.7 |
| 20260510070503 | 9 | 20 | 8.0 | 17.7 | 0.00 | 0.00 | 0.00 | 92 | 1017.7 |
| 20260510070214 | 9 | 18 | 8.0 | 19.3 | 0.00 | 0.00 | 0.00 | 93 | 1017.7 |
| 20260510065504 | 9 | 10 | 9.7 | 20.9 | 0.00 | 0.00 | 0.00 | 93 | 1017.8 |
| 20260510065005 | 9 | 12 | 8.0 | 19.3 | 0.00 | 0.00 | 0.00 | 93 | 1017.8 |
| 20260510064503 | 8 | 15 | 8.0 | 19.3 | 0.00 | 0.00 | 0.00 | 93 | 1017.8 |
| 20260510064003 | 8 | 16 | 8.0 | 17.7 | 0.00 | 0.00 | 0.00 | 93 | 1017.7 |
| 20260510063503 | 8 | 13 | 8.0 | 17.7 | 0.00 | 0.00 | 0.00 | 93 | 1017.7 |
| 20260510063003 | 8 | 9 | 8.0 | 19.3 | 0.00 | 0.00 | 0.00 | 93 | 1017.7 |
| 20260510062715 | 8 | 9 | 8.0 | 19.3 | 0.00 | 0.00 | 0.00 | 93 | 1017.7 |
| 20260510062004 | 8 | 12 | 6.4 | 20.9 | 0.00 | 0.00 | 0.00 | 94 | 1017.7 |
| 20260510061505 | 8 | 12 | 6.4 | 19.3 | 0.00 | 0.00 | 0.00 | 94 | 1017.7 |
| 20260510061003 | 8 | 11 | 6.4 | 19.3 | 0.00 | 0.00 | 0.00 | 94 | 1017.7 |
| 20260510060503 | 8 | 14 | 6.4 | 17.7 | 0.00 | 0.00 | 0.00 | 94 | 1017.7 |
| 20260510060003 | 8 | 15 | 6.4 | 17.7 | 0.00 | 0.00 | 0.00 | 94 | 1017.7 |
| 20260510055504 | 8 | 18 | 6.4 | 14.5 | 0.00 | 0.00 | 0.00 | 94 | 1017.6 |
| 20260510055003 | 8 | 22 | 6.4 | 14.5 | 0.00 | 0.00 | 0.00 | 94 | 1017.6 |
| 20260510054503 | 8 | 17 | 6.4 | 11.3 | 0.00 | 0.00 | 0.00 | 94 | 1017.6 |
| 20260510054003 | 8 | 13 | 6.4 | 14.5 | 0.00 | 0.00 | 0.00 | 94 | 1017.6 |
| 20260510053504 | 8 | 16 | 6.4 | 17.7 | 0.00 | 0.00 | 0.00 | 94 | 1017.6 |
| 20260510053003 | 8 | 18 | 4.8 | 17.7 | 0.00 | 0.00 | 0.00 | 94 | 1017.6 |
| 20260510052504 | 8 | 11 | 4.8 | 14.5 | 0.00 | 0.00 | 0.00 | 94 | 1017.6 |
| 20260510052004 | 8 | 7 | 6.4 | 17.7 | 0.00 | 0.00 | 0.00 | 94 | 1017.6 |
| 20260510051504 | 8 | 4 | 6.4 | 17.7 | 0.00 | 0.00 | 0.00 | 94 | 1017.6 |
| 20260510051003 | 7 | 6 | 6.4 | 16.1 | 0.00 | 0.00 | 0.00 | 94 | 1017.7 |
| 20260510050718 | 7 | 8 | 8.0 | 16.1 | 0.00 | 0.00 | 0.00 | 94 | 1017.7 |
| 20260510050216 | 7 | 4 | 8.0 | 14.5 | 0.00 | 0.00 | 0.00 | 94 | 1017.7 |
| 20260510045504 | 7 | 357 | 6.4 | 14.5 | 0.00 | 0.00 | 0.00 | 93 | 1017.7 |
| 20260510045004 | 7 | 360 | 6.4 | 11.3 | 0.00 | 0.00 | 0.00 | 93 | 1017.7 |
| 20260510044503 | 7 | 4 | 6.4 | 14.5 | 0.00 | 0.00 | 0.00 | 93 | 1017.7 |
| 20260510044004 | 7 | 8 | 4.8 | 14.5 | 0.00 | 0.00 | 0.00 | 93 | 1017.7 |
| 20260510043503 | 7 | 9 | 3.2 | 9.7 | 0.00 | 0.00 | 0.00 | 93 | 1017.7 |
| 20260510043004 | 7 | 4 | 3.2 | 9.7 | 0.00 | 0.00 | 0.00 | 93 | 1017.7 |
| 20260510042717 | 7 | 3 | 3.2 | 9.7 | 0.00 | 0.00 | 0.00 | 93 | 1017.7 |
| 20260510042003 | 7 | 8 | 4.8 | 11.3 | 0.00 | 0.00 | 0.00 | 93 | 1017.7 |
| 20260510041504 | 7 | 12 | 3.2 | 11.3 | 0.00 | 0.00 | 0.00 | 93 | 1017.7 |
| 20260510041003 | 7 | 8 | 3.2 | 9.7 | 0.00 | 0.00 | 0.00 | 93 | 1017.7 |
| 20260510040503 | 7 | 360 | 1.6 | 6.4 | 0.00 | 0.00 | 0.00 | 92 | 1017.7 |
| 20260510040216 | 7 | 3 | 1.6 | 8.0 | 0.00 | 0.00 | 0.00 | 92 | 1017.7 |
| 20260510035504 | 7 | 5 | 1.6 | 8.0 | 0.00 | 0.00 | 0.00 | 92 | 1017.8 |
| 20260510035004 | 7 | 5 | 3.2 | 8.0 | 0.00 | 0.00 | 0.00 | 92 | 1017.8 |
| 20260510034504 | 7 | 359 | 3.2 | 8.0 | 0.00 | 0.00 | 0.00 | 92 | 1017.8 |
| 20260510034003 | 7 | 356 | 4.8 | 8.0 | 0.00 | 0.00 | 0.00 | 92 | 1017.9 |
| 20260510033503 | 7 | 357 | 4.8 | 9.7 | 0.00 | 0.00 | 0.00 | 92 | 1017.9 |
| 20260510033214 | 7 | 359 | 4.8 | 9.7 | 0.00 | 0.00 | 0.00 | 92 | 1017.9 |
| 20260510032503 | 7 | 360 | 3.2 | 8.0 | 0.00 | 0.00 | 0.00 | 92 | 1018.2 |
| 20260510032004 | 7 | 360 | 3.2 | 8.0 | 0.00 | 0.00 | 0.00 | 92 | 1018.2 |
| 20260510031718 | 7 | 359 | 3.2 | 8.0 | 0.00 | 0.00 | 0.00 | 92 | 1018.2 |
| 20260510031004 | 7 | 359 | 4.8 | 8.0 | 0.00 | 0.00 | 0.00 | 92 | 1018.1 |
| 20260510030503 | 7 | 1 | 4.8 | 8.0 | 0.00 | 0.00 | 0.00 | 92 | 1018.1 |
| 20260510030003 | 7 | 2 | 3.2 | 8.0 | 0.00 | 0.00 | 0.00 | 92 | 1018.1 |
| 20260510025503 | 7 | 1 | 4.8 | 9.7 | 0.00 | 0.00 | 0.00 | 92 | 1018.2 |
| 20260510025003 | 7 | 1 | 4.8 | 11.3 | 0.00 | 0.00 | 0.00 | 92 | 1018.2 |
| 20260510024503 | 7 | 360 | 4.8 | 11.3 | 0.00 | 0.00 | 0.00 | 92 | 1018.2 |
| 20260510024004 | 7 | 6 | 4.8 | 9.7 | 0.00 | 0.00 | 0.00 | 91 | 1018.3 |
| 20260510023503 | 7 | 8 | 3.2 | 9.7 | 0.00 | 0.00 | 0.00 | 91 | 1018.3 |
| 20260510023215 | 7 | 5 | 3.2 | 9.7 | 0.00 | 0.00 | 0.00 | 91 | 1018.3 |
| 20260510022713 | 8 | 2 | 3.2 | 11.3 | 0.00 | 0.00 | 0.00 | 91 | 1018.2 |
| 20260510022003 | 8 | 2 | 4.8 | 11.3 | 0.00 | 0.00 | 0.00 | 91 | 1018.2 |
| 20260510021503 | 8 | 6 | 4.8 | 11.3 | 0.00 | 0.00 | 0.00 | 91 | 1018.2 |
| 20260510021005 | 8 | 13 | 3.2 | 14.5 | 0.00 | 0.00 | 0.00 | 91 | 1018.1 |
| 20260510020503 | 8 | 10 | 4.8 | 14.5 | 0.00 | 0.00 | 0.00 | 91 | 1018.1 |
| 20260510020003 | 8 | 7 | 6.4 | 11.3 | 0.00 | 0.00 | 0.00 | 91 | 1018.1 |
| 20260510015503 | 8 | 7 | 6.4 | 11.3 | 0.00 | 0.00 | 0.00 | 91 | 1018.2 |
| 20260510015003 | 8 | 9 | 4.8 | 11.3 | 0.00 | 0.00 | 0.00 | 91 | 1018.2 |
| 20260510014503 | 8 | 5 | 6.4 | 14.5 | 0.00 | 0.00 | 0.00 | 91 | 1018.2 |
| 20260510014215 | 8 | 3 | 6.4 | 14.5 | 0.00 | 0.00 | 0.00 | 91 | 1018.2 |
| 20260510013504 | 8 | 7 | 4.8 | 11.3 | 0.00 | 0.00 | 0.00 | 91 | 1018.2 |
| 20260510013005 | 8 | 6 | 4.8 | 11.3 | 0.00 | 0.00 | 0.00 | 91 | 1018.2 |
| 20260510012504 | 8 | 1 | 6.4 | 17.7 | 0.00 | 0.00 | 0.00 | 90 | 1018.2 |
| 20260510012003 | 8 | 1 | 6.4 | 17.7 | 0.00 | 0.00 | 0.00 | 90 | 1018.2 |
| 20260510011504 | 8 | 3 | 6.4 | 14.5 | 0.00 | 0.00 | 0.00 | 90 | 1018.2 |
| 20260510011004 | 8 | 7 | 4.8 | 14.5 | 0.00 | 0.00 | 0.00 | 90 | 1018.2 |
| 20260510010503 | 8 | 10 | 4.8 | 14.5 | 0.00 | 0.00 | 0.00 | 90 | 1018.2 |
| 20260510010005 | 8 | 13 | 4.8 | 14.5 | 0.00 | 0.00 | 0.00 | 90 | 1018.2 |
| 20260510005503 | 8 | 17 | 4.8 | 14.5 | 0.00 | 0.00 | 0.00 | 89 | 1018.2 |
| 20260510005003 | 8 | 17 | 4.8 | 9.7 | 0.00 | 0.00 | 0.00 | 89 | 1018.2 |
| 20260510004503 | 8 | 15 | 4.8 | 9.7 | 0.00 | 0.00 | 0.00 | 89 | 1018.2 |
| 20260510004215 | 8 | 14 | 4.8 | 9.7 | 0.00 | 0.00 | 0.00 | 89 | 1018.2 |
| 20260510003713 | 8 | 10 | 4.8 | 9.7 | 0.00 | 0.00 | 0.00 | 89 | 1018.2 |
| 20260510003004 | 8 | 9 | 4.8 | 14.5 | 0.00 | 0.00 | 0.00 | 89 | 1018.2 |
| 20260510002504 | 8 | 5 | 8.0 | 17.7 | 0.00 | 0.00 | 0.00 | 89 | 1018.3 |
| 20260510002004 | 8 | 4 | 8.0 | 17.7 | 0.00 | 0.00 | 0.00 | 89 | 1018.3 |
| 20260510001715 | 8 | 4 | 8.0 | 17.7 | 0.00 | 0.00 | 0.00 | 89 | 1018.3 |
| 20260510001003 | 8 | 8 | 8.0 | 19.3 | 0.00 | 0.00 | 0.00 | 88 | 1018.3 |
| 20260510000505 | 8 | 7 | 8.0 | 19.3 | 0.00 | 0.00 | 0.00 | 88 | 1018.3 |
| 20260510000229 | 8 | 8 | 8.0 | 19.3 | 0.00 | 0.00 | 0.00 | 88 | 1018.3 |
| 20260509235504 | 9 | 8 | 6.4 | 14.5 | 0.00 | 0.00 | 0.00 | 88 | 1018.3 |
| 20260509235004 | 9 | 8 | 6.4 | 16.1 | 0.00 | 0.00 | 0.00 | 87 | 1018.3 |
| 20260509234504 | 9 | 6 | 6.4 | 16.1 | 0.00 | 0.00 | 0.00 | 87 | 1018.3 |
| 20260509234003 | 9 | 6 | 8.0 | 19.3 | 0.00 | 0.00 | 0.00 | 87 | 1018.2 |
| 20260509233503 | 9 | 6 | 9.7 | 20.9 | 0.00 | 0.00 | 0.00 | 86 | 1018.2 |
| 20260509233003 | 9 | 5 | 9.7 | 22.5 | 0.00 | 0.00 | 0.00 | 86 | 1018.2 |
| 20260509232506 | 9 | 5 | 9.7 | 22.5 | 0.00 | 0.00 | 0.00 | 86 | 1018.3 |
| 20260509232218 | 9 | 5 | 8.0 | 22.5 | 0.00 | 0.00 | 0.00 | 85 | 1018.3 |
| 20260509231716 | 9 | 5 | 6.4 | 17.7 | 0.00 | 0.00 | 0.00 | 85 | 1018.3 |
| 20260509231213 | 10 | 9 | 6.4 | 17.7 | 0.00 | 0.00 | 0.00 | 84 | 1018.5 |
| 20260509230504 | 10 | 10 | 6.4 | 14.5 | 0.00 | 0.00 | 0.00 | 84 | 1018.5 |
| 20260509230004 | 10 | 8 | 6.4 | 17.7 | 0.00 | 0.00 | 0.00 | 83 | 1018.5 |
| 20260509225504 | 10 | 10 | 6.4 | 19.3 | 0.00 | 0.00 | 0.00 | 82 | 1018.3 |
| 20260509225215 | 10 | 10 | 6.4 | 19.3 | 0.00 | 0.00 | 0.00 | 82 | 1018.3 |
| 20260509224503 | 10 | 11 | 8.0 | 17.7 | 0.00 | 0.00 | 0.00 | 81 | 1018.3 |
| 20260509224005 | 10 | 11 | 8.0 | 17.7 | 0.00 | 0.00 | 0.00 | 80 | 1018.2 |
| 20260509223504 | 10 | 8 | 8.0 | 14.5 | 0.00 | 0.00 | 0.00 | 80 | 1018.2 |
| 20260509223003 | 10 | 7 | 8.0 | 14.5 | 0.00 | 0.00 | 0.00 | 78 | 1018.2 |
| 20260509222503 | 10 | 8 | 9.7 | 19.3 | 0.00 | 0.00 | 0.00 | 77 | 1017.9 |
| 20260509222004 | 11 | 7 | 9.7 | 22.5 | 0.00 | 0.00 | 0.00 | 76 | 1017.9 |
| 20260509221503 | 11 | 9 | 9.7 | 22.5 | 0.00 | 0.00 | 0.00 | 75 | 1017.9 |
| 20260509221003 | 11 | 11 | 9.7 | 20.9 | 0.00 | 0.00 | 0.00 | 73 | 1017.8 |
| 20260509220503 | 11 | 10 | 9.7 | 20.9 | 0.00 | 0.00 | 0.00 | 72 | 1017.8 |
| 20260509220005 | 11 | 10 | 9.7 | 19.3 | 0.00 | 0.00 | 0.00 | 70 | 1017.8 |
| 20260509215713 | 11 | 9 | 9.7 | 19.3 | 0.00 | 0.00 | 0.00 | 69 | 1017.7 |
| 20260509215003 | 11 | 8 | 11.3 | 24.1 | 0.00 | 0.00 | 0.00 | 66 | 1017.7 |
| 20260509214504 | 11 | 8 | 9.7 | 20.9 | 0.00 | 0.00 | 0.00 | 63 | 1017.7 |
| 20260509214003 | 11 | 9 | 8.0 | 19.3 | 0.00 | 0.00 | 0.00 | 59 | 1017.7 |
| 20260509213505 | 11 | 9 | 8.0 | 19.3 | 0.00 | 0.00 | 0.00 | 57 | 1017.7 |
| 20260509213003 | 11 | 11 | 8.0 | 19.3 | 0.00 | 0.00 | 0.00 | 56 | 1017.7 |
| 20260509212504 | 11 | 10 | 8.0 | 19.3 | 0.00 | 0.00 | 0.00 | 55 | 1017.5 |
| 20260509212005 | 11 | 10 | 6.4 | 16.1 | 0.00 | 0.00 | 0.00 | 55 | 1017.5 |
| 20260509211503 | 12 | 11 | 6.4 | 16.1 | 0.00 | 0.00 | 0.00 | 54 | 1017.5 |
| 20260509211003 | 12 | 16 | 6.4 | 14.5 | 0.00 | 0.00 | 0.00 | 54 | 1017.2 |
| 20260509210503 | 12 | 20 | 6.4 | 17.7 | 0.00 | 0.00 | 0.00 | 54 | 1017.2 |
| 20260509210216 | 12 | 19 | 6.4 | 17.7 | 0.00 | 0.00 | 0.00 | 54 | 1017.2 |
| 20260509205503 | 12 | 21 | 6.4 | 14.5 | 0.00 | 0.00 | 0.00 | 53 | 1017.1 |
| 20260509205003 | 12 | 23 | 4.8 | 9.7 | 0.00 | 0.00 | 0.00 | 53 | 1017.1 |
| 20260509204503 | 12 | 24 | 4.8 | 11.3 | 0.00 | 0.00 | 0.00 | 53 | 1017.1 |
| 20260509204003 | 12 | 21 | 4.8 | 11.3 | 0.00 | 0.00 | 0.00 | 53 | 1016.8 |
| 20260509203504 | 12 | 19 | 3.2 | 9.7 | 0.00 | 0.00 | 0.00 | 52 | 1016.8 |
| 20260509203004 | 12 | 22 | 4.8 | 14.5 | 0.00 | 0.00 | 0.00 | 52 | 1016.8 |
| 20260509202504 | 12 | 22 | 6.4 | 14.5 | 0.00 | 0.00 | 0.00 | 52 | 1016.8 |
| 20260509202003 | 13 | 20 | 4.8 | 11.3 | 0.00 | 0.00 | 0.00 | 52 | 1016.8 |
| 20260509201718 | 13 | 24 | 4.8 | 11.3 | 0.00 | 0.00 | 0.00 | 52 | 1016.8 |
| 20260509201004 | 13 | 26 | 4.8 | 11.3 | 0.00 | 0.00 | 0.00 | 52 | 1016.7 |
| 20260509200504 | 13 | 21 | 4.8 | 9.7 | 0.00 | 0.00 | 0.00 | 53 | 1016.7 |
| 20260509200005 | 13 | 21 | 3.2 | 9.7 | 0.00 | 0.00 | 0.00 | 53 | 1016.7 |
| 20260509195714 | 13 | 22 | 3.2 | 9.7 | 0.00 | 0.00 | 0.00 | 53 | 1016.6 |
| 20260509195005 | 13 | 26 | 3.2 | 14.5 | 0.00 | 0.00 | 0.00 | 52 | 1016.6 |
| 20260509194504 | 14 | 27 | 3.2 | 9.7 | 0.00 | 0.00 | 0.00 | 51 | 1016.6 |
| 20260509194003 | 14 | 40 | 4.8 | 9.7 | 0.00 | 0.00 | 0.00 | 51 | 1016.6 |
| 20260509193503 | 15 | 42 | 4.8 | 14.5 | 0.00 | 0.00 | 0.00 | 51 | 1016.6 |
| 20260509193003 | 15 | 44 | 4.8 | 14.5 | 0.00 | 0.00 | 0.00 | 51 | 1016.6 |
| 20260509192503 | 15 | 52 | 6.4 | 11.3 | 0.00 | 0.00 | 0.00 | 51 | 1016.3 |
| 20260509192004 | 15 | 56 | 6.4 | 14.5 | 0.00 | 0.00 | 0.00 | 50 | 1016.3 |
| 20260509191713 | 15 | 57 | 6.4 | 14.5 | 0.00 | 0.00 | 0.00 | 50 | 1016.3 |
| 20260509191003 | 16 | 64 | 4.8 | 9.7 | 0.00 | 0.00 | 0.00 | 50 | 1016.1 |
| 20260509190505 | 16 | 70 | 4.8 | 11.3 | 0.00 | 0.00 | 0.00 | 49 | 1016.1 |
| 20260509190004 | 16 | 72 | 4.8 | 11.3 | 0.00 | 0.00 | 0.00 | 48 | 1016.1 |
| 20260509185504 | 16 | 76 | 4.8 | 11.3 | 0.00 | 0.00 | 0.00 | 48 | 1015.8 |
| 20260509185003 | 16 | 77 | 4.8 | 11.3 | 0.00 | 0.00 | 0.00 | 48 | 1015.8 |
| 20260509184503 | 16 | 75 | 4.8 | 14.5 | 0.00 | 0.00 | 0.00 | 47 | 1015.8 |
| 20260509184003 | 16 | 76 | 4.8 | 14.5 | 0.00 | 0.00 | 0.00 | 47 | 1015.6 |
| 20260509183503 | 16 | 78 | 4.8 | 9.7 | 0.00 | 0.00 | 0.00 | 46 | 1015.6 |
| 20260509183215 | 17 | 78 | 4.8 | 9.7 | 0.00 | 0.00 | 0.00 | 46 | 1015.6 |
| 20260509182503 | 17 | 80 | 4.8 | 14.5 | 0.00 | 0.00 | 0.00 | 45 | 1015.4 |
| 20260509182004 | 17 | 83 | 6.4 | 14.5 | 0.00 | 0.00 | 0.00 | 44 | 1015.4 |
| 20260509181504 | 17 | 93 | 4.8 | 11.3 | 0.00 | 0.00 | 0.00 | 44 | 1015.4 |
| 20260509181003 | 17 | 90 | 4.8 | 9.7 | 0.00 | 0.00 | 0.00 | 44 | 1015.3 |
| 20260509180715 | 17 | 89 | 4.8 | 9.7 | 0.00 | 0.00 | 0.00 | 43 | 1015.3 |
| 20260509180003 | 18 | 105 | 4.8 | 9.7 | 0.00 | 0.00 | 0.00 | 42 | 1015.3 |
| 20260509175503 | 18 | 103 | 3.2 | 8.0 | 0.00 | 0.00 | 0.00 | 41 | 1015.4 |
| 20260509175004 | 18 | 74 | 4.8 | 9.7 | 0.00 | 0.00 | 0.00 | 39 | 1015.4 |
| 20260509174717 | 19 | 57 | 4.8 | 9.7 | 0.00 | 0.00 | 0.00 | 39 | 1015.4 |
| 20260509174003 | 19 | 6 | 6.4 | 14.5 | 0.00 | 0.00 | 0.00 | 41 | 1015.3 |
| 20260509173504 | 19 | 4 | 6.4 | 14.5 | 0.00 | 0.00 | 0.00 | 42 | 1015.3 |
| 20260509173004 | 19 | 13 | 4.8 | 14.5 | 0.00 | 0.00 | 0.00 | 42 | 1015.3 |
| 20260509172503 | 19 | 34 | 4.8 | 14.5 | 0.00 | 0.00 | 0.00 | 39 | 1015.3 |
| 20260509172003 | 19 | 43 | 4.8 | 11.3 | 0.00 | 0.00 | 0.00 | 39 | 1015.3 |
| 20260509171503 | 19 | 47 | 6.4 | 14.5 | 0.00 | 0.00 | 0.00 | 38 | 1015.3 |
| 20260509171217 | 19 | 52 | 4.8 | 14.5 | 0.00 | 0.00 | 0.00 | 39 | 1015.5 |
| 20260509170715 | 19 | 62 | 6.4 | 14.5 | 0.00 | 0.00 | 0.00 | 40 | 1015.5 |
| 20260509170003 | 19 | 65 | 6.4 | 11.3 | 0.00 | 0.00 | 0.00 | 38 | 1015.5 |
| 20260509165504 | 20 | 73 | 6.4 | 9.7 | 0.00 | 0.00 | 0.00 | 37 | 1015.6 |
| 20260509165004 | 20 | 64 | 6.4 | 11.3 | 0.00 | 0.00 | 0.00 | 37 | 1015.6 |
| 20260509164712 | 20 | 57 | 6.4 | 11.3 | 0.00 | 0.00 | 0.00 | 37 | 1015.6 |
| 20260509164004 | 20 | 68 | 4.8 | 11.3 | 0.00 | 0.00 | 0.00 | 37 | 1015.6 |
| 20260509163503 | 20 | 74 | 4.8 | 11.3 | 0.00 | 0.00 | 0.00 | 36 | 1015.6 |
| 20260509163003 | 20 | 70 | 8.0 | 17.7 | 0.00 | 0.00 | 0.00 | 37 | 1015.6 |
| 20260509162714 | 20 | 71 | 8.0 | 19.3 | 0.00 | 0.00 | 0.00 | 36 | 1015.5 |